DW5533 Weather Reports


time (UTC)temp
C
wind
direction
speed
KPH
gust
KPH
rain 1hr
cm
rain 24hr
cm
rain mn
cm
humidity
%
barometer
mb
20260507191524 12 300 1.6 16.1 0.00 0.03 0.03 44 1004.7
20260507190027 11 306 0.0 11.3 0.00 0.03 0.03 46 1004.9
20260507184521 11 330 4.8 17.7 0.00 0.03 0.03 45 1004.7
20260507183022 11 61 0.0 8.0 0.00 0.03 0.03 44 1005.1
20260507181518 12 279 1.6 8.0 0.00 0.03 0.03 45 1005.2
20260507180016 11 245 1.6 16.1 0.00 0.03 0.03 44 1005.1
20260507174514 11 189 0.0 14.5 0.00 0.03 0.03 46 1005.2
20260507173011 11 327 1.6 9.7 0.00 0.03 0.03 48 1005.5
20260507171509 11 20 4.8 20.9 0.00 0.03 0.03 47 1005.6
20260507170006 10 317 0.0 8.0 0.00 0.03 0.03 51 1005.6
20260507164505 10 213 1.6 9.7 0.00 0.03 0.03 54 1005.9
20260507163002 10 240 0.0 11.3 0.00 0.03 0.03 59 1006.2
20260507161659 10 265 0.0 8.0 0.00 0.03 0.03 64 1006.1
20260507160106 9 244 0.0 8.0 0.00 0.03 0.03 69 1006.2
20260507154553 8 188 0.0 4.8 0.00 0.03 0.03 76 1006.3
20260507153053 7 131 0.0 4.8 0.00 0.03 0.03 90 1006.4
20260507151546 7 304 0.0 3.2 0.03 0.03 0.03 97 1006.3
20260507150041 6 304 0.0 0.0 0.03 0.03 0.03 98 1006.5
20260507144538 5 178 0.0 3.2 0.03 0.03 0.03 97 1006.7
20260507143036 5 202 0.0 1.6 0.03 0.03 0.03 98 1006.8
20260507141531 5 202 0.0 0.0 0.00 0.00 0.00 98 1006.8
20260507140029 5 202 0.0 3.2 0.00 0.00 0.00 98 1006.6
20260507134528 5 94 0.0 0.0 0.00 0.00 0.00 98 1006.6
20260507133025 5 94 0.0 0.0 0.00 0.00 0.00 98 1006.4
20260507131534 5 94 0.0 0.0 0.00 0.00 0.00 98 1006.7
20260507130024 5 94 0.0 0.0 0.00 0.00 0.00 98 1006.8
20260507124525 5 94 0.0 0.0 0.00 0.00 0.00 98 1006.7
20260507123026 5 94 0.0 0.0 0.00 0.00 0.00 98 1006.7
20260507121522 5 94 0.0 0.0 0.00 0.00 0.00 98 1006.5
20260507120021 5 94 0.0 0.0 0.00 0.00 0.00 98 1006.5
20260507114520 4 94 0.0 0.0 0.00 0.00 0.00 98 1006.5
20260507113020 4 94 0.0 0.0 0.00 0.00 0.00 98 1006.3
20260507111520 4 94 0.0 0.0 0.00 0.00 0.00 98 1006.4
20260507110019 4 94 0.0 0.0 0.00 0.00 0.00 98 1006.5
20260507104526 4 94 0.0 0.0 0.00 0.00 0.00 98 1006.5
20260507103022 4 94 0.0 0.0 0.00 0.00 0.00 98 1006.5
20260507101529 4 94 0.0 0.0 0.00 0.00 0.00 98 1006.3
20260507100027 4 94 0.0 0.0 0.00 0.00 0.00 98 1006.2
20260507094516 3 94 0.0 0.0 0.00 0.00 0.00 98 1006.3
20260507093018 3 94 0.0 0.0 0.00 0.00 0.00 98 1006.2
20260507091533 3 94 0.0 0.0 0.00 0.00 0.00 98 1006.2
20260507090012 3 94 0.0 0.0 0.00 0.00 0.00 98 1006.3
20260507084511 3 94 0.0 0.0 0.00 0.00 0.00 98 1006.3
20260507083015 3 94 0.0 0.0 0.00 0.00 0.00 98 1006.3
20260507081508 4 94 0.0 0.0 0.00 0.00 0.00 98 1006.1
20260507080007 4 94 0.0 0.0 0.00 0.00 0.00 98 1005.8
20260507074509 5 94 0.0 0.0 0.00 0.00 0.00 98 1006.0
20260507073005 5 94 0.0 0.0 0.00 0.00 0.00 98 1005.9
20260507071505 5 94 0.0 0.0 0.00 0.00 0.00 98 1005.7
20260507070139 5 94 0.0 0.0 0.00 0.00 0.00 98 1005.8
20260507064603 5 94 0.0 0.0 0.00 0.00 0.00 98 1005.8
20260507063102 5 94 0.0 0.0 0.00 0.00 0.00 98 1005.8
20260507061559 5 94 0.0 0.0 0.00 0.00 0.00 98 1006.0
20260507060057 5 94 0.0 0.0 0.00 0.00 0.00 98 1005.9
20260507054604 5 94 0.0 0.0 0.00 0.00 0.00 98 1005.8
20260507053056 5 94 0.0 0.0 0.00 0.00 0.00 98 1006.0
20260507051554 5 94 0.0 0.0 0.00 0.00 0.00 98 1006.1
20260507050053 5 85 0.0 0.0 0.00 0.00 0.00 98 1006.0
20260507044554 5 85 0.0 0.0 0.00 0.00 0.00 98 1005.9
20260507043051 5 85 0.0 3.2 0.00 0.00 0.00 98 1006.0
20260507041550 6 343 0.0 0.0 0.00 0.00 0.00 98 1005.9
20260507040050 6 343 0.0 0.0 0.00 0.00 0.00 98 1006.0
20260507034549 6 343 0.0 0.0 0.00 0.00 0.00 98 1005.6
20260507033047 6 343 0.0 0.0 0.00 0.00 0.00 98 1006.3
20260507031546 6 343 0.0 0.0 0.00 0.00 0.00 98 1006.2
20260507030047 6 343 0.0 0.0 0.00 0.00 0.00 98 1006.3
20260507024545 6 343 0.0 0.0 0.00 0.00 0.00 98 1006.5
20260507023044 6 343 0.0 0.0 0.00 0.00 0.00 98 1006.6
20260507021543 6 343 0.0 0.0 0.00 0.00 0.00 98 1006.7
20260507020048 6 343 0.0 0.0 0.00 0.00 0.00 98 1006.7
20260507014552 6 342 0.0 4.8 0.00 0.00 0.00 98 1006.3
20260507013038 6 343 0.0 0.0 0.00 0.00 0.00 98 1006.1
20260507011537 6 343 0.0 3.2 0.00 0.00 0.00 98 1005.9
20260507010036 6 343 0.0 3.2 0.00 0.00 0.00 98 1006.1
20260507004536 6 343 0.0 0.0 0.00 0.00 0.00 98 1005.6
20260507003034 6 343 0.0 0.0 0.00 0.00 0.00 98 1005.5
20260507001535 6 343 0.0 0.0 0.00 0.00 0.00 98 1005.0
20260507000032 6 343 0.0 0.0 0.00 0.00 0.00 98 1005.0
20260506234529 6 343 0.0 0.0 0.00 0.00 0.00 98 1005.0
20260506233028 7 343 0.0 1.6 0.00 0.00 0.00 98 1004.9
20260506231527 7 343 0.0 0.0 0.00 0.00 0.00 98 1004.9
20260506230025 7 343 0.0 0.0 0.00 0.00 0.00 98 1004.8
20260506224524 7 342 0.0 0.0 0.00 0.00 0.00 98 1004.6
20260506223023 7 343 0.0 0.0 0.00 0.00 0.00 98 1004.3
20260506221524 7 343 0.0 0.0 0.00 0.00 0.00 98 1004.3
20260506220029 7 343 0.0 0.0 0.00 0.00 0.00 98 1004.0
20260506214521 7 342 0.0 4.8 0.00 0.10 0.00 98 1003.9
20260506213019 7 342 0.0 4.8 0.00 0.10 0.00 98 1003.8
20260506211516 7 344 1.6 6.4 0.00 0.10 0.00 98 1003.6
20260506210016 8 329 0.0 4.8 0.00 0.10 0.00 98 1003.4
20260506204513 8 355 0.0 4.8 0.00 0.10 0.00 98 1003.4
20260506203011 8 355 0.0 4.8 0.00 0.10 0.00 98 1003.0
20260506201510 8 355 0.0 4.8 0.00 0.10 0.00 98 1003.0
20260506200009 8 34 0.0 3.2 0.00 0.10 0.00 98 1003.0
20260506194506 8 34 0.0 1.6 0.00 0.10 0.00 98 1003.2
20260506193005 9 50 0.0 3.2 0.00 0.10 0.00 98 1003.3